TimeCEST,TemperatureF,Dew PointF,Humidity,Sea Level PressureIn,VisibilityMPH,Wind Direction,Wind SpeedMPH,Gust SpeedMPH,PrecipitationIn,Events,Conditions,WindDirDegrees,DateUTC
12:00 AM,53.6,50.0,88,30.15,-9999.0,SSW,3.5,-,N/A,,Clear,200,2013-04-16 22:00:00
12:30 AM,53.6,50.0,88,30.15,-9999.0,South,4.6,-,N/A,,Clear,190,2013-04-16 22:30:00
1:00 AM,51.8,48.2,88,30.18,-9999.0,SSW,6.9,-,N/A,,Clear,200,2013-04-16 23:00:00
1:30 AM,51.8,48.2,88,30.15,-9999.0,SSW,6.9,-,N/A,,Clear,200,2013-04-16 23:30:00
2:00 AM,51,49,90,30.19,12,SW,6.7,,,,Partly Cloudy,230,2013-04-17 00:00:00
2:00 AM,51.8,48.2,88,30.15,-9999.0,SW,5.8,-,N/A,,Clear,220,2013-04-17 00:00:00
2:30 AM,51.8,48.2,88,30.18,-9999.0,SW,6.9,-,N/A,,Clear,220,2013-04-17 00:30:00
3:00 AM,51.8,50.0,94,30.18,-9999.0,SW,5.8,-,N/A,,Clear,220,2013-04-17 01:00:00
3:30 AM,51.8,50.0,94,30.15,-9999.0,SSW,5.8,-,N/A,,Clear,210,2013-04-17 01:30:00
4:00 AM,50.0,48.2,94,30.15,-9999.0,SSW,6.9,-,N/A,,Clear,200,2013-04-17 02:00:00
4:30 AM,50.0,48.2,94,30.15,-9999.0,SSW,5.8,-,N/A,,Clear,210,2013-04-17 02:30:00
5:00 AM,50.0,48.2,94,30.18,-9999.0,WSW,6.9,-,N/A,,Clear,240,2013-04-17 03:00:00
5:30 AM,50.0,48.2,94,30.18,-9999.0,WSW,4.6,-,N/A,,Clear,250,2013-04-17 03:30:00
6:00 AM,51.8,50.0,94,30.18,-9999.0,SW,8.1,-,N/A,,Clear,220,2013-04-17 04:00:00
6:30 AM,51.8,50.0,94,30.18,-9999.0,SW,6.9,-,N/A,,Clear,220,2013-04-17 04:30:00
7:00 AM,51.8,50.0,94,30.21,-9999.0,SW,5.8,-,N/A,,Clear,220,2013-04-17 05:00:00
7:30 AM,51.8,50.0,94,30.21,-9999.0,SW,5.8,-,N/A,,Clear,220,2013-04-17 05:30:00
8:00 AM,54,52,90,30.22,9,SW,6.7,,,,Partly Cloudy,230,2013-04-17 06:00:00
8:00 AM,53.6,51.8,94,30.21,-9999.0,SSW,5.8,-,N/A,,Clear,210,2013-04-17 06:00:00
8:30 AM,57.2,51.8,82,30.21,-9999.0,WSW,9.2,-,N/A,,Clear,240,2013-04-17 06:30:00
9:00 AM,57.2,53.6,88,30.21,-9999.0,WSW,6.9,-,N/A,,Clear,240,2013-04-17 07:00:00
9:30 AM,60.8,51.8,72,30.21,-9999.0,West,6.9,-,N/A,,Clear,270,2013-04-17 07:30:00
10:00 AM,62.6,50.0,63,30.21,-9999.0,NW,8.1,-,N/A,,Clear,320,2013-04-17 08:00:00
10:30 AM,62.6,51.8,68,30.24,-9999.0,NNW,9.2,-,N/A,,Clear,330,2013-04-17 08:30:00
11:00 AM,64.4,50.0,59,30.24,-9999.0,NW,6.9,-,N/A,,Clear,320,2013-04-17 09:00:00
11:30 AM,64.4,50.0,59,30.24,6.2,North,4.6,-,N/A,,Partly Cloudy,360,2013-04-17 09:30:00
12:00 PM,66.2,50.0,56,30.21,6.2,North,4.6,-,N/A,,Partly Cloudy,350,2013-04-17 10:00:00
12:30 PM,64.4,50.0,59,30.21,6.2,Variable,2.3,-,N/A,,Scattered Clouds,0,2013-04-17 10:30:00
1:00 PM,66.2,50.0,56,30.21,6.2,Variable,2.3,-,N/A,,Scattered Clouds,0,2013-04-17 11:00:00
1:30 PM,68.0,48.2,49,30.21,6.2,Variable,2.3,-,N/A,,Scattered Clouds,0,2013-04-17 11:30:00
2:00 PM,66,49,43,30.20,16,NNW,4.5,,,,Partly Cloudy,330,2013-04-17 12:00:00
2:00 PM,66.2,48.2,52,30.21,6.2,NW,3.5,-,N/A,,Scattered Clouds,320,2013-04-17 12:00:00
2:30 PM,68.0,48.2,49,30.21,6.2,Calm,Calm,-,N/A,,Partly Cloudy,0,2013-04-17 12:30:00
3:00 PM,68.0,48.2,49,30.21,6.2,NNE,3.5,-,N/A,,Partly Cloudy,30,2013-04-17 13:00:00
3:30 PM,68.0,50.0,52,30.21,6.2,Variable,1.2,-,N/A,,Partly Cloudy,0,2013-04-17 13:30:00
4:00 PM,68.0,48.2,49,30.21,6.2,West,3.5,-,N/A,,Partly Cloudy,280,2013-04-17 14:00:00
4:30 PM,68.0,48.2,49,30.18,6.2,Calm,Calm,-,N/A,,Partly Cloudy,0,2013-04-17 14:30:00
5:00 PM,69.8,48.2,46,30.18,-9999.0,Variable,1.2,-,N/A,,Clear,0,2013-04-17 15:00:00
5:30 PM,68.0,48.2,49,30.18,-9999.0,Variable,1.2,-,N/A,,Clear,0,2013-04-17 15:30:00
6:00 PM,68.0,46.4,46,30.18,-9999.0,SSW,3.5,-,N/A,,Clear,200,2013-04-17 16:00:00
6:30 PM,68.0,48.2,49,30.18,-9999.0,South,3.5,-,N/A,,Clear,180,2013-04-17 16:30:00
7:00 PM,66.2,50.0,56,30.15,-9999.0,SSW,3.5,-,N/A,,Clear,200,2013-04-17 17:00:00
7:30 PM,64.4,46.4,52,30.15,-9999.0,South,3.5,-,N/A,,Clear,170,2013-04-17 17:30:00
8:00 PM,62,47,47,30.16,22,SSW,2.2,,,,Scattered Clouds,200,2013-04-17 18:00:00
8:00 PM,62.6,46.4,55,30.15,-9999.0,Variable,2.3,-,N/A,,Clear,0,2013-04-17 18:00:00
8:30 PM,60.8,46.4,59,30.15,-9999.0,SSE,3.5,-,N/A,,Clear,160,2013-04-17 18:30:00
9:00 PM,60.8,46.4,59,30.15,-9999.0,SSE,5.8,-,N/A,,Clear,160,2013-04-17 19:00:00
9:30 PM,59.0,46.4,63,30.15,-9999.0,South,4.6,-,N/A,,Clear,170,2013-04-17 19:30:00
10:00 PM,59.0,46.4,63,30.15,-9999.0,SSE,6.9,-,N/A,,Clear,160,2013-04-17 20:00:00
10:30 PM,59.0,46.4,63,30.15,-9999.0,SSE,6.9,-,N/A,,Clear,160,2013-04-17 20:30:00
11:00 PM,59.0,46.4,63,30.15,-9999.0,South,5.8,-,N/A,,Clear,170,2013-04-17 21:00:00
11:30 PM,57.2,46.4,67,30.15,-9999.0,SSE,6.9,-,N/A,,Clear,160,2013-04-17 21:30:00